Find Explorer 11

NORAD ID: 107 Int'l Des: 1961 NU Owner: GSFC Country: US operational
LEO

Current View

Loading 3D Globe...

About Explorer 11

Description loading...

Upcoming Passes

Passes for default location (London). Set your location on the main map for personalized predictions.

Altitude History

Loading altitude history...

Two-Line Element Set

1 107U 61013A 26151.11646779 .00002876 00000-0 33431-3 0 9995
2 107 28.7811 54.8711 0493601 328.8615 28.3573 14.22042185274065
Epoch: May 31, 2026 • Age: 18 hours

Current Status

Altitude 1163.2 km
Velocity 7.10 km/s
Sub-Earth Point 16.48°N, 4.08°E
Type other

Most Searched